Time,TemperatureF,DewpointF,PressureIn,WindDirection,WindDirectionDegrees,WindSpeedMPH,WindSpeedGustMPH,Humidity,HourlyPrecipIn,Conditions,Clouds,dailyrainin,SolarRadiationWatts/m^2,SoftwareType,DateUTC
2013-04-12 00:12:00,56.0,53.0,-100.00,NNW,334,5.0,8.0,90,0.00,,,2.01,0.000000,,2013-04-12 05:12:00,
2013-04-12 00:23:00,56.0,53.0,-100.00,NNW,334,5.0,8.0,90,0.00,,,2.01,0.000000,,2013-04-12 05:23:00,
2013-04-12 00:32:00,56.0,53.0,-100.00,NNW,334,5.0,8.0,90,0.00,,,2.01,0.000000,,2013-04-12 05:32:00,
2013-04-12 00:42:00,56.0,53.0,-100.00,NNW,334,5.0,8.0,90,0.00,,,2.01,0.000000,,2013-04-12 05:42:00,
2013-04-12 00:50:00,54.0,52.0,-100.00,NW,322,3.0,9.0,92,0.00,,,2.01,0.000000,,2013-04-12 05:50:00,
2013-04-12 01:12:00,54.0,52.0,-100.00,NW,322,3.0,9.0,92,0.00,,,2.01,0.000000,,2013-04-12 06:12:00,
2013-04-12 01:22:00,54.0,52.0,-100.00,NW,322,3.0,9.0,92,0.00,,,2.01,0.000000,,2013-04-12 06:22:00,
2013-04-12 01:32:00,54.0,52.0,-100.00,NW,322,3.0,9.0,92,0.00,,,2.01,0.000000,,2013-04-12 06:32:00,
2013-04-12 01:42:00,54.0,52.0,-100.00,NW,322,3.0,9.0,92,0.00,,,2.01,0.000000,,2013-04-12 06:42:00,
2013-04-12 01:50:00,55.0,52.0,-100.00,NNW,331,6.0,13.0,89,0.00,,,2.01,0.000000,,2013-04-12 06:50:00,
2013-04-12 02:22:00,55.0,52.0,-100.00,NNW,331,6.0,13.0,89,0.00,,,2.01,0.000000,,2013-04-12 07:22:00,
2013-04-12 02:32:00,55.0,52.0,-100.00,NNW,331,6.0,13.0,89,0.00,,,2.01,0.000000,,2013-04-12 07:32:00,
2013-04-12 02:42:00,55.0,52.0,-100.00,NNW,331,6.0,13.0,89,0.00,,,2.01,0.000000,,2013-04-12 07:42:00,
2013-04-12 02:50:00,54.0,50.0,-100.00,NNW,345,8.0,14.0,87,0.00,,,2.01,0.000000,,2013-04-12 07:50:00,
2013-04-12 03:12:00,54.0,50.0,-100.00,NNW,345,8.0,14.0,87,0.00,,,2.01,0.000000,,2013-04-12 08:12:00,
2013-04-12 03:22:00,54.0,50.0,-100.00,NNW,345,8.0,14.0,87,0.00,,,2.01,0.000000,,2013-04-12 08:22:00,
2013-04-12 03:32:00,54.0,50.0,-100.00,NNW,345,8.0,14.0,87,0.00,,,2.01,0.000000,,2013-04-12 08:32:00,
2013-04-12 03:42:00,54.0,50.0,-100.00,NNW,345,8.0,14.0,87,0.00,,,2.01,0.000000,,2013-04-12 08:42:00,
2013-04-12 03:50:00,52.0,48.0,-100.00,NNW,334,6.0,11.0,87,0.00,,,2.01,0.000000,,2013-04-12 08:50:00,
2013-04-12 04:22:00,52.0,48.0,-100.00,NNW,334,6.0,11.0,87,0.00,,,2.01,0.000000,,2013-04-12 09:22:00,
2013-04-12 04:33:00,52.0,48.0,-100.00,NNW,334,6.0,11.0,87,0.00,,,2.01,0.000000,,2013-04-12 09:33:00,
2013-04-12 04:43:00,52.0,48.0,-100.00,NNW,334,6.0,11.0,87,0.00,,,2.01,0.000000,,2013-04-12 09:43:00,
2013-04-12 04:50:00,52.0,48.0,-100.00,NNW,338,7.0,15.0,87,0.00,,,2.01,0.000000,,2013-04-12 09:50:00,
2013-04-12 05:12:00,52.0,48.0,-100.00,NNW,338,7.0,15.0,87,0.00,,,2.01,0.000000,,2013-04-12 10:12:00,
2013-04-12 05:23:00,52.0,48.0,-100.00,NNW,338,7.0,15.0,87,0.00,,,2.01,0.000000,,2013-04-12 10:23:00,
2013-04-12 05:34:00,52.0,48.0,-100.00,NNW,338,7.0,15.0,87,0.00,,,2.01,0.000000,,2013-04-12 10:34:00,
2013-04-12 05:42:00,52.0,48.0,-100.00,NNW,338,7.0,15.0,87,0.00,,,2.01,0.000000,,2013-04-12 10:42:00,
2013-04-12 05:50:00,51.0,47.0,-100.00,NNW,345,8.0,14.0,86,0.00,,,2.01,0.000000,,2013-04-12 10:50:00,
2013-04-12 06:13:00,51.0,47.0,-100.00,NNW,345,8.0,14.0,86,0.00,,,2.01,0.000000,,2013-04-12 11:13:00,
2013-04-12 06:22:00,51.0,47.0,-100.00,NNW,345,8.0,14.0,86,0.00,,,2.01,0.000000,,2013-04-12 11:22:00,
2013-04-12 06:32:00,51.0,47.0,-100.00,NNW,345,8.0,14.0,86,0.00,,,2.01,0.000000,,2013-04-12 11:32:00,
2013-04-12 06:42:00,51.0,47.0,-100.00,NNW,345,8.0,14.0,86,0.00,,,2.01,0.000000,,2013-04-12 11:42:00,
2013-04-12 06:50:00,50.0,46.0,-100.00,North,358,7.0,13.0,87,0.00,,,2.01,5.000000,,2013-04-12 11:50:00,
2013-04-12 07:22:00,50.0,46.0,-100.00,North,358,7.0,13.0,87,0.00,,,2.01,5.000000,,2013-04-12 12:22:00,
2013-04-12 07:33:00,50.0,46.0,-100.00,North,358,7.0,13.0,87,0.00,,,2.01,5.000000,,2013-04-12 12:33:00,
2013-04-12 07:42:00,50.0,46.0,-100.00,North,358,7.0,13.0,87,0.00,,,2.01,5.000000,,2013-04-12 12:42:00,
2013-04-12 07:50:00,51.0,46.0,-100.00,North,356,10.0,19.0,83,0.00,,,2.01,122.000000,,2013-04-12 12:50:00,
2013-04-12 08:12:00,51.0,46.0,-100.00,North,356,10.0,19.0,83,0.00,,,2.01,122.000000,,2013-04-12 13:12:00,
2013-04-12 08:22:00,51.0,46.0,-100.00,North,356,10.0,19.0,83,0.00,,,2.01,122.000000,,2013-04-12 13:22:00,
2013-04-12 08:32:00,51.0,46.0,-100.00,North,356,10.0,19.0,83,0.00,,,2.01,122.000000,,2013-04-12 13:32:00,
2013-04-12 08:42:00,51.0,46.0,-100.00,North,356,10.0,19.0,83,0.00,,,2.01,122.000000,,2013-04-12 13:42:00,
2013-04-12 08:50:00,56.0,44.0,-100.00,NNE,20,8.0,17.0,64,0.00,,,-99.99,358.000000,,2013-04-12 13:50:00,
2013-04-12 09:13:00,56.0,44.0,-100.00,NNE,20,8.0,17.0,64,0.00,,,-99.99,358.000000,,2013-04-12 14:13:00,
2013-04-12 09:23:00,56.0,44.0,-100.00,NNE,20,8.0,17.0,64,0.00,,,-99.99,358.000000,,2013-04-12 14:23:00,
2013-04-12 09:33:00,56.0,44.0,-100.00,NNE,20,8.0,17.0,64,0.00,,,-99.99,358.000000,,2013-04-12 14:33:00,
2013-04-12 09:42:00,56.0,44.0,-100.00,NNE,20,8.0,17.0,64,0.00,,,-99.99,358.000000,,2013-04-12 14:42:00,
2013-04-12 09:50:00,60.0,43.0,-100.00,North,11,10.0,19.0,53,0.00,,,-99.99,578.000000,,2013-04-12 14:50:00,
2013-04-12 10:22:00,60.0,43.0,-100.00,North,11,10.0,19.0,53,0.00,,,-99.99,578.000000,,2013-04-12 15:22:00,
2013-04-12 10:33:00,60.0,43.0,-100.00,North,11,10.0,19.0,53,0.00,,,-99.99,578.000000,,2013-04-12 15:33:00,
2013-04-12 10:43:00,60.0,43.0,-100.00,North,11,10.0,19.0,53,0.00,,,-99.99,578.000000,,2013-04-12 15:43:00,
2013-04-12 10:50:00,64.0,42.0,-100.00,North,351,9.0,17.0,45,0.00,,,-99.99,765.000000,,2013-04-12 15:50:00,
2013-04-12 11:23:00,64.0,42.0,-100.00,North,351,9.0,17.0,45,0.00,,,-99.99,765.000000,,2013-04-12 16:23:00,
2013-04-12 11:33:00,64.0,42.0,-100.00,North,351,9.0,17.0,45,0.00,,,-99.99,765.000000,,2013-04-12 16:33:00,
2013-04-12 11:42:00,64.0,42.0,-100.00,North,351,9.0,17.0,45,0.00,,,-99.99,765.000000,,2013-04-12 16:42:00,
2013-04-12 11:50:00,67.0,43.0,-100.00,North,354,10.0,19.0,42,0.00,,,2.01,891.000000,,2013-04-12 16:50:00,
2013-04-12 12:12:00,67.0,43.0,-100.00,North,354,10.0,19.0,42,0.00,,,2.01,891.000000,,2013-04-12 17:12:00,
2013-04-12 12:23:00,67.0,43.0,-100.00,North,354,10.0,19.0,42,0.00,,,2.01,891.000000,,2013-04-12 17:23:00,
2013-04-12 12:33:00,67.0,43.0,-100.00,North,354,10.0,19.0,42,0.00,,,2.01,891.000000,,2013-04-12 17:33:00,
2013-04-12 12:44:00,67.0,43.0,-100.00,North,354,10.0,19.0,42,0.00,,,2.01,891.000000,,2013-04-12 17:44:00,
2013-04-12 13:50:00,72.0,41.0,-100.00,NNW,342,10.0,20.0,33,0.00,,,2.01,969.000000,,2013-04-12 18:50:00,
2013-04-12 14:26:00,72.0,41.0,-100.00,NNW,342,10.0,20.0,33,0.00,,,2.01,969.000000,,2013-04-12 19:26:00,
2013-04-12 14:27:00,72.0,41.0,-100.00,NNW,342,10.0,20.0,33,0.00,,,2.01,969.000000,,2013-04-12 19:27:00,
2013-04-12 14:32:00,72.0,41.0,-100.00,NNW,342,10.0,20.0,33,0.00,,,2.01,969.000000,,2013-04-12 19:32:00,
2013-04-12 14:43:00,72.0,41.0,-100.00,NNW,342,10.0,20.0,33,0.00,,,2.01,969.000000,,2013-04-12 19:43:00,
2013-04-12 14:50:00,72.0,40.0,-100.00,NNW,342,9.0,17.0,31,0.00,,,2.01,826.000000,,2013-04-12 19:50:00,
2013-04-12 15:12:00,72.0,40.0,-100.00,NNW,342,9.0,17.0,31,0.00,,,2.01,826.000000,,2013-04-12 20:12:00,
2013-04-12 15:22:00,72.0,40.0,-100.00,NNW,342,9.0,17.0,31,0.00,,,2.01,826.000000,,2013-04-12 20:22:00,
2013-04-12 15:32:00,72.0,40.0,-100.00,NNW,342,9.0,17.0,31,0.00,,,2.01,826.000000,,2013-04-12 20:32:00,
2013-04-12 15:42:00,72.0,40.0,-100.00,NNW,342,9.0,17.0,31,0.00,,,2.01,826.000000,,2013-04-12 20:42:00,
2013-04-12 15:50:00,74.0,41.0,-100.00,North,353,9.0,17.0,31,0.00,,,0.48,699.000000,,2013-04-12 20:50:00,
2013-04-12 16:22:00,74.0,41.0,-100.00,North,353,9.0,17.0,31,0.00,,,0.48,699.000000,,2013-04-12 21:22:00,
2013-04-12 16:33:00,74.0,41.0,-100.00,North,353,9.0,17.0,31,0.00,,,0.48,699.000000,,2013-04-12 21:33:00,
2013-04-12 16:43:00,74.0,41.0,-100.00,North,353,9.0,17.0,31,0.00,,,0.48,699.000000,,2013-04-12 21:43:00,
2013-04-12 16:50:00,75.0,41.0,-100.00,NW,317,7.0,16.0,30,0.00,,,0.04,586.000000,,2013-04-12 21:50:00,
2013-04-12 17:22:00,75.0,41.0,-100.00,NW,317,7.0,16.0,30,0.00,,,0.04,586.000000,,2013-04-12 22:22:00,
2013-04-12 17:32:00,75.0,41.0,-100.00,NW,317,7.0,16.0,30,0.00,,,0.04,586.000000,,2013-04-12 22:32:00,
2013-04-12 17:42:00,75.0,41.0,-100.00,NW,317,7.0,16.0,30,0.00,,,0.04,586.000000,,2013-04-12 22:42:00,
2013-04-12 17:50:00,74.0,41.0,-100.00,NNW,344,6.0,13.0,30,0.00,,,0.00,382.000000,,2013-04-12 22:50:00,
2013-04-12 18:12:00,74.0,41.0,-100.00,NNW,344,6.0,13.0,30,0.00,,,0.00,382.000000,,2013-04-12 23:12:00,
2013-04-12 18:22:00,74.0,41.0,-100.00,NNW,344,6.0,13.0,30,0.00,,,0.00,382.000000,,2013-04-12 23:22:00,
2013-04-12 18:32:00,74.0,41.0,-100.00,NNW,344,6.0,13.0,30,0.00,,,0.00,382.000000,,2013-04-12 23:32:00,
2013-04-12 18:42:00,74.0,41.0,-100.00,NNW,344,6.0,13.0,30,0.00,,,0.00,382.000000,,2013-04-12 23:42:00,
2013-04-12 18:50:00,72.0,42.0,-100.00,North,356,5.0,10.0,34,0.00,,,0.00,178.000000,,2013-04-12 23:50:00,
2013-04-12 19:12:00,72.0,42.0,-100.00,North,356,5.0,10.0,34,0.00,,,0.00,178.000000,,2013-04-13 00:12:00,
2013-04-12 19:22:00,72.0,42.0,-100.00,North,356,5.0,10.0,34,0.00,,,0.00,178.000000,,2013-04-13 00:22:00,
2013-04-12 19:32:00,72.0,42.0,-100.00,North,356,5.0,10.0,34,0.00,,,0.00,178.000000,,2013-04-13 00:32:00,
2013-04-12 19:42:00,72.0,42.0,-100.00,North,356,5.0,10.0,34,0.00,,,0.00,178.000000,,2013-04-13 00:42:00,
2013-04-12 19:50:00,66.0,45.0,-100.00,NNW,339,1.0,6.0,46,0.00,,,0.00,24.000000,,2013-04-13 00:50:00,
2013-04-12 20:13:00,66.0,45.0,-100.00,NNW,339,1.0,6.0,46,0.00,,,0.00,24.000000,,2013-04-13 01:13:00,
2013-04-12 20:22:00,66.0,45.0,-100.00,NNW,339,1.0,6.0,46,0.00,,,0.00,24.000000,,2013-04-13 01:22:00,
2013-04-12 20:32:00,66.0,45.0,-100.00,NNW,339,1.0,6.0,46,0.00,,,0.00,24.000000,,2013-04-13 01:32:00,
2013-04-12 20:42:00,66.0,45.0,-100.00,NNW,339,1.0,6.0,46,0.00,,,0.00,24.000000,,2013-04-13 01:42:00,
2013-04-12 20:50:00,61.0,50.0,-100.00,East,101,0.0,1.0,68,0.00,,,0.00,0.000000,,2013-04-13 01:50:00,
2013-04-12 21:22:00,61.0,50.0,-100.00,East,101,0.0,1.0,68,0.00,,,0.00,0.000000,,2013-04-13 02:22:00,
2013-04-12 21:32:00,61.0,50.0,-100.00,East,101,0.0,1.0,68,0.00,,,0.00,0.000000,,2013-04-13 02:32:00,
2013-04-12 21:42:00,61.0,50.0,-100.00,East,101,0.0,1.0,68,0.00,,,0.00,0.000000,,2013-04-13 02:42:00,
2013-04-12 21:50:00,61.0,45.0,-100.00,North,9,2.0,3.0,56,0.00,,,0.00,0.000000,,2013-04-13 02:50:00,
2013-04-12 22:23:00,61.0,45.0,-100.00,North,9,2.0,3.0,56,0.00,,,0.00,0.000000,,2013-04-13 03:23:00,
2013-04-12 22:33:00,61.0,45.0,-100.00,North,9,2.0,3.0,56,0.00,,,0.00,0.000000,,2013-04-13 03:33:00,
2013-04-12 22:42:00,61.0,45.0,-100.00,North,9,2.0,3.0,56,0.00,,,0.00,0.000000,,2013-04-13 03:42:00,
2013-04-12 22:50:00,60.0,44.0,-100.00,North,355,2.0,6.0,56,0.00,,,0.00,0.000000,,2013-04-13 03:50:00,
2013-04-12 23:12:00,60.0,44.0,-100.00,North,355,2.0,6.0,56,0.00,,,0.00,0.000000,,2013-04-13 04:12:00,
2013-04-12 23:23:00,60.0,44.0,-100.00,North,355,2.0,6.0,56,0.00,,,0.00,0.000000,,2013-04-13 04:23:00,
2013-04-12 23:33:00,60.0,44.0,-100.00,North,355,2.0,6.0,56,0.00,,,0.00,0.000000,,2013-04-13 04:33:00,
2013-04-12 23:42:00,60.0,44.0,-100.00,North,355,2.0,6.0,56,0.00,,,0.00,0.000000,,2013-04-13 04:42:00,
2013-04-12 23:50:00,59.0,44.0,-100.00,North,11,3.0,7.0,58,0.00,,,0.00,0.000000,,2013-04-13 04:50:00,